EA1IDU Weather Reports


Display with metric or nautical units.
time (UTC)temp
F
wind
direction
speed
MPH
gust
MPH
rain 1hr
in
rain 24hr
in
rain mn
in
humidity
%
barometer
mb
20260904100635 0 263 4.0 7.0 0.00 0.00 0.00 1 1027.4
20260904095609 0 254 3.0 7.0 0.00 0.00 0.00 1 1027.6
20260904094604 0 265 3.0 4.0 0.00 0.00 0.00 1 1027.6
20260904093559 0 266 2.0 4.0 0.00 0.00 0.00 1 1027.5
20260904092636 0 270 2.0 2.0 0.00 0.00 0.00 1 1027.4
20260904091549 0 270 2.0 4.0 0.00 0.00 0.00 1 1027.4
20260904090604 0 270 3.0 4.0 0.00 0.00 0.00 1 1027.2
20260904085538 0 270 1.0 4.0 0.00 0.00 0.00 1 1027.1
20260904084533 0 270 0.0 2.0 0.00 0.00 0.00 1 1026.9
20260904083530 0 0.0 2.0 0.00 0.00 0.00 1 1026.7
20260904082543 0 270 0.0 2.0 0.00 0.00 0.00 1 1026.8
20260904081539 0 0.0 2.0 0.00 0.00 0.00 1 1026.8
20260904080613 0 270 0.0 2.0 0.00 0.00 0.00 1 1026.5
20260904075608 0 0.0 0.0 0.00 0.00 0.00 1 1026.4
20260904074602 0 270 0.0 2.0 0.00 0.00 0.00 1 1026.6
20260904073557 0 270 0.0 2.0 0.00 0.00 0.00 1 1026.5
20260904072614 0 270 0.0 2.0 0.00 0.00 0.00 1 1026.6
20260904071547 0 270 0.0 2.0 0.00 0.00 0.00 1 1026.5
20260904070542 0 270 0.0 2.0 0.00 0.00 0.00 1 1026.6
20260904065538 0 0.0 0.0 0.00 0.00 0.00 1 1026.5
20260904064613 0 0.0 0.0 0.00 0.00 0.00 1 1026.5
20260904063526 0 0.0 0.0 0.00 0.00 0.00 1 1026.5
20260904062521 0 0.0 2.0 0.00 0.00 0.00 1 1026.3
20260904061517 0 0.0 2.0 0.00 0.00 0.00 1 1026.2
20260904060611 0 0.0 0.0 0.00 0.00 0.00 1 1026.3
20260904055606 0 0.0 0.0 0.00 0.00 0.00 1 1026.3
20260904054621 0 0.0 0.0 0.00 0.00 0.00 1 1026.3
20260904053556 0 0.0 0.0 0.00 0.00 0.00 1 1026.3
20260904052551 0 270 0.0 2.0 0.00 0.00 0.00 1 1026.2
20260904051546 0 270 2.0 4.0 0.00 0.00 0.00 1 1026.2
20260904050540 0 270 1.0 2.0 0.00 0.00 0.00 1 1026.0
20260904045535 0 0.0 0.0 0.00 0.00 0.00 1 1026.1
20260904044529 0 270 0.0 2.0 0.00 0.00 0.00 1 1026.2
20260904043524 0 270 0.0 2.0 0.00 0.00 0.00 1 1026.3
20260904042519 0 270 0.0 2.0 0.00 0.00 0.00 1 1026.3
20260904041614 0 270 1.0 2.0 0.00 0.00 0.00 1 1026.2
20260904040609 0 0.0 0.0 0.00 0.00 0.00 1 1026.1
20260904035624 0 0.0 0.0 0.00 0.00 0.00 1 1026.1
20260904034559 0 0.0 0.0 0.00 0.00 0.00 1 1026.2
20260904033553 0 0.0 0.0 0.00 0.00 0.00 1 1026.1
20260904032548 0 0.0 0.0 0.00 0.00 0.00 1 1026.0
20260904031604 0 0.0 0.0 0.00 0.00 0.00 1 1026.0
20260904030619 0 0.0 0.0 0.00 0.00 0.00 1 1026.0
20260904025532 0 0.0 0.0 0.00 0.00 0.00 1 1026.1
20260904024527 0 0.0 0.0 0.00 0.00 0.00 1 1026.2
20260904023522 0 0.0 0.0 0.00 0.00 0.00 1 1026.1
20260904022516 0 0.0 0.0 0.00 0.00 0.00 1 1026.3
20260904021611 0 0.0 2.0 0.00 0.00 0.00 1 1026.2
20260904020606 0 0.0 0.0 0.00 0.00 0.00 1 1026.3
20260904015622 0 0.0 2.0 0.00 0.00 0.00 1 1026.4
20260904014556 0 0.0 0.0 0.00 0.00 0.00 1 1026.5
20260904013551 0 0.0 0.0 0.00 0.00 0.00 1 1026.5
20260904012547 0 270 0.0 2.0 0.00 0.00 0.00 1 1026.7
20260904011622 0 270 0.0 2.0 0.00 0.00 0.00 1 1026.7
20260904010537 0 0.0 0.0 0.00 0.00 0.00 1 1026.9
20260904005530 0 270 0.0 2.0 0.00 0.00 0.00 1 1026.8
20260904004545 0 270 1.0 2.0 0.00 0.00 0.00 1 1026.9
20260904003520 0 270 0.0 2.0 0.00 0.00 0.00 1 1027.0
20260904002614 0 270 1.0 2.0 0.00 0.00 0.00 1 1026.9
20260904001610 0 270 1.0 2.0 0.00 0.00 0.00 1 1026.9
20260904000605 0 0.0 0.0 0.00 0.00 0.00 1 1027.0
20260903235559 0 270 0.0 2.0 0.00 0.00 0.00 1 1026.9
20260903234554 0 270 1.0 4.0 0.00 0.00 0.00 1 1027.0
20260903233549 0 270 1.0 4.0 0.00 0.00 0.00 1 1027.1
20260903232544 0 270 1.0 2.0 0.00 0.00 0.00 1 1027.1
20260903231538 0 270 1.0 2.0 0.00 0.00 0.00 1 1027.1
20260903230533 0 270 1.0 2.0 0.00 0.00 0.00 1 1027.1
20260903225528 0 270 1.0 2.0 0.00 0.00 0.00 1 1027.2
20260903224543 0 270 1.0 4.0 0.00 0.00 0.00 1 1027.1
20260903223518 0 270 3.0 4.0 0.00 0.00 0.00 1 1027.2
20260903222613 0 270 4.0 7.0 0.00 0.00 0.00 1 1027.1
20260903221628 0 270 3.0 4.0 0.00 0.00 0.00 1 1027.1
20260903220603 0 270 1.0 2.0 0.00 0.00 0.00 1 1027.1
20260903215559 0 270 1.0 2.0 0.00 0.00 0.00 1 1027.0
20260903214552 0 270 2.0 4.0 0.00 0.00 0.00 1 1027.0
20260903213629 0 270 3.0 6.0 0.00 0.00 0.00 1 1027.0
20260903212542 0 270 4.0 7.0 0.00 0.00 0.00 1 1027.2
20260903211537 0 270 3.0 6.0 0.00 0.00 0.00 1 1027.2
20260903210532 0 270 3.0 6.0 0.00 0.00 0.00 1 1027.1
20260903205527 0 270 4.0 7.0 0.00 0.00 0.00 1 1027.0
20260903204522 0 270 3.0 6.0 0.00 0.00 0.00 1 1027.1
20260903203536 0 270 4.0 6.0 0.00 0.00 0.00 1 1027.0
20260903202611 0 270 3.0 8.0 0.00 0.00 0.00 1 1026.9
20260903201606 0 270 3.0 9.0 0.00 0.00 0.00 1 1026.8
20260903200601 0 270 4.0 6.0 0.00 0.00 0.00 1 1026.6
20260903195556 0 270 0.0 4.0 0.00 0.00 0.00 1 1026.5
20260903194551 0 0.0 2.0 0.00 0.00 0.00 1 1026.3
20260903193546 0 293 0.0 2.0 0.00 0.00 0.00 1 1026.1
20260903192540 0 293 0.0 2.0 0.00 0.00 0.00 1 1026.2
20260903191535 0 270 0.0 2.0 0.00 0.00 0.00 1 1026.1
20260903190531 0 0.0 0.0 0.00 0.00 0.00 1 1026.1
20260903185546 0 0.0 0.0 0.00 0.00 0.00 1 1026.0
20260903184520 0 0.0 2.0 0.00 0.00 0.00 1 1025.9
20260903183615 0 270 1.0 2.0 0.00 0.00 0.00 1 1025.9
20260903182609 0 260 1.0 2.0 0.00 0.00 0.00 1 1025.9
20260903181604 0 248 3.0 6.0 0.00 0.00 0.00 1 1025.9
20260903180558 0 248 3.0 4.0 0.00 0.00 0.00 1 1025.9
20260903175553 0 260 3.0 4.0 0.00 0.00 0.00 1 1025.9
20260903174548 0 256 3.0 4.0 0.00 0.00 0.00 1 1025.9
20260903173543 0 273 2.0 4.0 0.00 0.00 0.00 1 1025.9
20260903172537 0 266 3.0 7.0 0.00 0.00 0.00 1 1026.0
20260903171531 0 271 5.0 11.0 0.00 0.00 0.00 1 1025.9
20260903170526 0 272 5.0 11.0 0.00 0.00 0.00 1 1025.8
20260903165522 0 276 6.0 11.0 0.00 0.00 0.00 1 1025.9
20260903164516 0 250 7.0 13.0 0.00 0.00 0.00 1 1025.8
20260903163611 0 296 6.0 11.0 0.00 0.00 0.00 1 1025.8
20260903162607 0 242 7.0 14.0 0.00 0.00 0.00 1 1025.8
20260903161620 0 270 6.0 11.0 0.00 0.00 0.00 1 1025.7
20260903160555 0 236 4.0 11.0 0.00 0.00 0.00 1 1025.8
20260903155550 0 246 5.0 11.0 0.00 0.00 0.00 1 1025.8
20260903154545 0 277 5.0 8.0 0.00 0.00 0.00 1 1025.8
20260903153601 0 249 6.0 11.0 0.00 0.00 0.00 1 1025.8
20260903152534 0 271 7.0 11.0 0.00 0.00 0.00 1 1026.0
20260903151529 0 277 8.0 16.0 0.00 0.00 0.00 1 1026.0
20260903150524 0 240 4.0 8.0 0.00 0.00 0.00 1 1025.8
20260903145520 0 268 4.0 9.0 0.00 0.00 0.00 1 1026.1
20260903144614 0 263 7.0 11.0 0.00 0.00 0.00 1 1026.1
20260903143629 0 253 6.0 11.0 0.00 0.00 0.00 1 1026.2
20260903142604 0 349 0.0 4.0 0.00 0.00 0.00 1 1026.2
20260903141558 0 255 8.0 11.0 0.00 0.00 0.00 1 1026.2
20260903140553 0 230 2.0 4.0 0.00 0.00 0.00 1 1026.4
20260903135548 0 270 5.0 9.0 0.00 0.00 0.00 1 1026.4
20260903134543 0 263 5.0 8.0 0.00 0.00 0.00 1 1026.4
20260903133537 0 246 4.0 9.0 0.00 0.00 0.00 1 1026.5
20260903132533 0 248 5.0 11.0 0.00 0.00 0.00 1 1026.6
20260903131527 0 210 6.0 11.0 0.00 0.00 0.00 1 1026.6
20260903130522 0 246 6.0 11.0 0.00 0.00 0.00 1 1026.5
20260903125518 0 255 6.0 9.0 0.00 0.00 0.00 1 1026.7
20260903124611 0 275 3.0 7.0 0.00 0.00 0.00 1 1026.7
20260903123628 0 262 4.0 11.0 0.00 0.00 0.00 1 1026.9
20260903122601 0 261 3.0 8.0 0.00 0.00 0.00 1 1026.8
20260903121556 0 268 2.0 6.0 0.00 0.00 0.00 1 1026.8
20260903120551 0 262 4.0 8.0 0.00 0.00 0.00 1 1026.9
20260903115546 0 254 3.0 8.0 0.00 0.00 0.00 1 1027.0
20260903114541 0 255 4.0 8.0 0.00 0.00 0.00 1 1026.9
20260903113537 0 257 3.0 7.0 0.00 0.00 0.00 1 1027.1
20260903112550 0 283 2.0 7.0 0.00 0.00 0.00 1 1027.2
20260903111525 0 236 2.0 4.0 0.00 0.00 0.00 1 1027.4
20260903110520 0 270 1.0 2.0 0.00 0.00 0.00 1 1027.4
20260903105635 0 264 2.0 4.0 0.00 0.00 0.00 1 1027.6
20260903104610 0 255 2.0 4.0 0.00 0.00 0.00 1 1027.7
20260903103605 0 248 2.0 4.0 0.00 0.00 0.00 1 1027.6
20260903102619 0 248 1.0 2.0 0.00 0.00 0.00 1 1027.7
20260903101554 0 0.0 2.0 0.00 0.00 0.00 1 1027.6